H1 CPF 1 NER 2017 10 25 9 7981 glonass117 H2 0907002 9117 36112 2017 10 25 0 0 0 2017 10 28 23 45 0 900 1 1 0 0 0 H9 10 0 58051 0.00000 0 -21821078.604 9767672.959 8919140.840 10 0 58051 900.00000 0 -20727387.560 9097981.549 11772137.912 10 0 58051 1800.00000 0 -19427421.375 8133281.655 14396619.622 10 0 58051 2700.00000 0 -17980098.726 6864887.982 16741564.357 10 0 58051 3600.00000 0 -16446900.825 5296637.544 18761350.068 10 0 58051 4500.00000 0 -14889290.116 3445004.202 20416645.468 10 0 58051 5400.00000 0 -13366147.404 1338683.451 21675180.598 10 0 58051 6300.00000 0 -11931334.889 -982337.550 22512381.470 10 0 58051 7200.00000 0 -10631487.431 -3468187.692 22911856.097 10 0 58051 8100.00000 0 -9504124.793 -6060940.508 22865722.032 10 0 58051 9000.00000 0 -8576164.206 -8696788.901 22374768.532 10 0 58051 9900.00000 0 -7862895.885 -11308476.458 21448449.578 10 0 58051 10800.00000 0 -7367464.591 -13827884.857 20104707.222 10 0 58051 11700.00000 0 -7080879.050 -16188669.977 18369628.044 10 0 58051 12600.00000 0 -6982548.707 -18328836.774 16276938.807 10 0 58051 13500.00000 0 -7041324.840 -20193145.371 13867350.705 10 0 58051 14400.00000 0 -7217001.564 -21735247.550 11187764.679 10 0 58051 15300.00000 0 -7462212.516 -22919463.926 8290353.414 10 0 58051 16200.00000 0 -7724641.999 -23722127.225 5231538.203 10 0 58051 17100.00000 0 -7949455.769 -24132435.383 2070881.261 10 0 58051 18000.00000 0 -8081847.205 -24152778.985 -1130083.970 10 0 58051 18900.00000 0 -8069589.600 -23798530.016 -4309060.650 10 0 58051 19800.00000 0 -7865485.142 -23097301.832 -7404209.897 10 0 58051 20700.00000 0 -7429605.737 -22087712.792 -10355360.698 10 0 58051 21600.00000 0 -6731229.888 -20817707.017 -13105184.031 10 0 58051 22500.00000 0 -5750393.078 -19342504.314 -15600307.783 10 0 58051 23400.00000 0 -4478985.817 -17722266.738 -17792350.562 10 0 58051 24300.00000 0 -2921352.811 -16019580.762 -19638854.595 10 0 58051 25200.00000 0 -1094367.959 -14296861.174 -21104100.259 10 0 58051 26100.00000 0 973018.056 -12613785.605 -22159787.345 10 0 58051 27000.00000 0 3240738.813 -11024866.559 -22785571.084 10 0 58051 27900.00000 0 5659042.038 -9577261.516 -22969443.813 10 0 58051 28800.00000 0 8170329.192 -8308911.332 -22707956.113 10 0 58051 29700.00000 0 10711328.974 -7247083.053 -22006274.187 10 0 58051 30600.00000 0 13215515.394 -6407376.287 -20878073.148 10 0 58051 31500.00000 0 15615671.046 -5793232.999 -19345268.702 10 0 58051 32400.00000 0 17846490.470 -5395969.685 -17437592.498 10 0 58051 33300.00000 0 19847116.756 -5195329.346 -15192019.080 10 0 58051 34200.00000 0 21563507.173 -5160529.259 -12652054.988 10 0 58051 35100.00000 0 22950530.541 -5251759.993 -9866903.056 10 0 58051 36000.00000 0 23973709.921 -5422072.460 -6890517.189 10 0 58051 36900.00000 0 24610538.512 -5619573.602 -3780565.146 10 0 58051 37800.00000 0 24851314.238 -5789838.300 -597318.648 10 0 58051 38700.00000 0 24699458.197 -5878435.952 2597508.353 10 0 58051 39600.00000 0 24171303.507 -5833465.104 5741951.111 10 0 58051 40500.00000 0 23295363.046 -5607988.956 8774992.425 10 0 58051 41400.00000 0 22111106.324 -5162268.405 11637744.802 10 0 58051 42300.00000 0 20667296.231 -4465697.611 14274593.431 10 0 58051 43200.00000 0 19019954.858 -3498359.249 16634277.709 10 0 58051 44100.00000 0 17230043.157 -2252132.391 18670890.212 10 0 58051 45000.00000 0 15360951.278 -731304.646 20344773.419 10 0 58051 45900.00000 0 13475904.390 1047339.208 21623296.586 10 0 58051 46800.00000 0 11635392.375 3054957.944 22481497.394 10 0 58051 47700.00000 0 9894730.924 5251607.561 22902575.512 10 0 58051 48600.00000 0 8301856.049 7587670.012 22878228.080 10 0 58051 49500.00000 0 6895444.308 10005699.063 22408820.065 10 0 58051 50400.00000 0 5703437.534 12442607.516 21503385.576 10 0 58051 51300.00000 0 4742033.786 14832105.590 20179459.447 10 0 58051 52200.00000 0 4015186.702 17107289.296 18462741.704 10 0 58051 53100.00000 0 3514634.039 19203270.885 16386600.863 10 0 58051 54000.00000 0 3220453.653 21059741.397 13991425.262 10 0 58051 54900.00000 0 3102122.824 22623357.794 11323834.787 10 0 58051 55800.00000 0 3120035.298 23849854.233 8435768.429 10 0 58051 56700.00000 0 3227410.802 24705788.563 5383465.776 10 0 58051 57600.00000 0 3372514.898 25169850.475 2226362.890 10 0 58051 58500.00000 0 3501093.766 25233676.290 -974074.935 10 0 58051 59400.00000 0 3558919.237 24902136.434 -4155559.737 10 0 58051 60300.00000 0 3494334.795 24193084.151 -7256202.149 10 0 58051 61200.00000 0 3260693.381 23136576.924 -10215722.451 10 0 58051 62100.00000 0 2818582.713 21773604.543 -12976626.940 10 0 58051 63000.00000 0 2137743.124 20154378.488 -15485326.263 10 0 58051 63900.00000 0 1198596.424 18336255.694 -17693173.617 10 0 58051 64800.00000 0 -6679.055 16381384.790 -19557402.978 10 0 58051 65700.00000 0 -1473572.592 14354174.033 -21041949.746 10 0 58051 66600.00000 0 -3185188.628 12318687.171 -22118138.775 10 0 58051 67500.00000 0 -5112719.998 10336075.721 -22765227.690 10 0 58051 68400.00000 0 -7216427.261 8462154.084 -22970796.206 10 0 58051 69300.00000 0 -9447083.532 6745217.425 -22730975.150 10 0 58051 70200.00000 0 -11747825.201 5224191.714 -22050511.830 10 0 58051 71100.00000 0 -14056332.301 3927191.214 -20942671.262 10 0 58051 72000.00000 0 -16307248.764 2870541.761 -19428975.636 10 0 58051 72900.00000 0 -18434743.088 2058308.787 -17538787.154 10 0 58051 73800.00000 0 -20375104.139 1482348.172 -15308742.019 10 0 58051 74700.00000 0 -22069265.158 1122876.589 -12782046.052 10 0 58051 75600.00000 0 -23465151.984 949536.435 -10007644.785 10 0 58051 76500.00000 0 -24519758.425 922910.048 -7039283.243 10 0 58051 77400.00000 0 -25200862.695 996419.284 -3934472.830 10 0 58051 78300.00000 0 -25488313.546 1118530.350 -753384.525 10 0 58051 79200.00000 0 -25374832.252 1235171.001 2442310.812 10 0 58051 80100.00000 0 -24866296.597 1292258.112 5590632.958 10 0 58051 81000.00000 0 -23981494.465 1238228.823 8630490.869 10 0 58051 81900.00000 0 -22751356.671 1026468.057 11502866.190 10 0 58051 82800.00000 0 -21217700.428 617529.339 14151958.671 10 0 58051 83700.00000 0 -19431535.306 -18945.717 16526271.201 10 0 58051 84600.00000 0 -17451001.826 -902691.464 18579613.290 10 0 58051 85500.00000 0 -15339028.380 -2041732.000 20272003.209 10 0 58052 0.00000 0 -13160803.871 -3431792.145 21570451.091 10 0 58052 900.00000 0 -10981171.305 -5056232.773 22449607.578 10 0 58052 1800.00000 0 -8862050.803 -6886513.971 22892264.806 10 0 58052 2700.00000 0 -6860000.065 -8883170.568 22889699.852 10 0 58052 3600.00000 0 -5024013.060 -10997259.168 22441853.325 10 0 58052 4500.00000 0 -3393649.776 -13172218.814 21557338.965 10 0 58052 5400.00000 0 -1997574.589 -15346068.220 20253283.518 10 0 58052 6300.00000 0 -852564.351 -17453848.669 18554999.238 10 0 58052 7200.00000 0 36972.552 -19430210.676 16495494.853 10 0 58052 8100.00000 0 678946.575 -21212036.188 14114834.026 10 0 58052 9000.00000 0 1093009.652 -22740986.197 11459353.521 10 0 58052 9900.00000 0 1309475.412 -23965866.356 8580756.378 10 0 58052 10800.00000 0 1367783.768 -24844710.757 5535098.080 10 0 58052 11700.00000 0 1314576.203 -25346495.773 2381686.041 10 0 58052 12600.00000 0 1201464.710 -25452411.479 -818085.132 10 0 58052 13500.00000 0 1082590.515 -25156637.086 -4001938.906 10 0 58052 14400.00000 0 1012077.576 -24466587.938 -7107938.003 10 0 58052 15300.00000 0 1041490.188 -23402624.218 -10075696.523 10 0 58052 16200.00000 0 1217403.605 -21997234.397 -12847558.604 10 0 58052 17100.00000 0 1579191.452 -20293728.723 -15369720.073 10 0 58052 18000.00000 0 2157124.059 -18344498.624 -17593271.018 10 0 58052 18900.00000 0 2970858.342 -16208915.940 -19475139.259 10 0 58052 19800.00000 0 4028383.006 -13950960.536 -20978917.041 10 0 58052 20700.00000 0 5325463.352 -11636675.872 -22075555.765 10 0 58052 21600.00000 0 6845608.926 -9331558.528 -22743916.542 10 0 58052 22500.00000 0 8560565.390 -7097989.888 -22971167.161 10 0 58052 23400.00000 0 10431310.095 -4992815.905 -22753018.990 10 0 58052 24300.00000 0 12409510.186 -3065174.172 -22093800.360 10 0 58052 25200.00000 0 14439382.983 -1354656.950 -21006365.758 10 0 58052 26100.00000 0 16459881.874 110115.275 -19511843.095 10 0 58052 27000.00000 0 18407117.634 1312452.207 -17639224.024 10 0 58052 27900.00000 0 20216915.404 2248046.027 -15424804.985 10 0 58052 28800.00000 0 21827401.770 2924900.154 -12911489.281 10 0 58052 29700.00000 0 23181515.092 3362738.781 -10147962.990 10 0 58052 30600.00000 0 24229335.098 3591922.858 -7187759.749 10 0 58052 31500.00000 0 24930134.955 3651918.582 -4088231.783 10 0 58052 32400.00000 0 25254070.271 3589383.181 -909446.267 10 0 58052 33300.00000 0 25183434.252 3455948.703 2286972.241 10 0 58052 34200.00000 0 24713426.079 3305797.303 5439031.282 10 0 58052 35100.00000 0 23852399.647 3193130.395 8485569.136 10 0 58052 36000.00000 0 22621581.382 3169638.719 11367439.582 10 0 58052 36900.00000 0 21054267.941 3282080.494 14028659.677 10 0 58052 37800.00000 0 19194536.375 3570070.536 16417498.257 10 0 58052 38700.00000 0 17095519.628 4064174.568 18487483.879 10 0 58052 39600.00000 0 14817318.590 4784390.247 20198312.386 10 0 58052 40500.00000 0 12424637.097 5739080.390 21516636.233 10 0 58052 41400.00000 0 9984237.883 6924404.973 22416719.998 10 0 58052 42300.00000 0 7562325.216 8324277.578 22880948.934 10 0 58052 43200.00000 0 5221962.904 9910849.979 22900180.293 10 0 58052 44100.00000 0 3020635.134 11645506.347 22473930.075 10 0 58052 45000.00000 0 1008051.680 13480326.918 21610390.954 10 0 58052 45900.00000 0 -775711.077 15359961.154 20326280.416 10 0 58052 46800.00000 0 -2301655.929 17223832.824 18646521.336 10 0 58052 47700.00000 0 -3552837.222 19008585.117 16603760.663 10 0 58052 48600.00000 0 -4524819.633 20650663.369 14237735.081 10 0 58052 49500.00000 0 -5225604.827 22088926.849 11594495.685 10 0 58052 50400.00000 0 -5675030.017 23267179.301 8725506.845 10 0 58052 51300.00000 0 -5903664.997 24136511.222 5686637.115 10 0 58052 52200.00000 0 -5951255.650 24657354.604 2537062.395 10 0 58052 53100.00000 0 -5864781.297 24801162.923 -661896.266 10 0 58052 54000.00000 0 -5696209.804 24551645.207 -3847976.576 10 0 58052 54900.00000 0 -5500047.179 23905501.999 -6959196.019 10 0 58052 55800.00000 0 -5330787.029 22872632.352 -9935065.040 10 0 58052 56700.00000 0 -5240369.244 21475803.564 -12717767.896 10 0 58052 57600.00000 0 -5275756.551 19749798.180 -15253287.625 10 0 58052 58500.00000 0 -5476732.143 17740074.844 -17492452.951 10 0 58052 59400.00000 0 -5874011.768 15500999.917 -19391887.018 10 0 58052 60300.00000 0 -6487750.010 13093724.418 -20914840.116 10 0 58052 61200.00000 0 -7326503.473 10583795.387 -22031891.151 10 0 58052 62100.00000 0 -8386694.188 8038601.236 -22721505.424 10 0 58052 63000.00000 0 -9652595.522 5524756.948 -22970439.222 10 0 58052 63900.00000 0 -11096840.959 3105537.081 -22773984.582 10 0 58052 64800.00000 0 -12681434.531 838461.890 -22136050.639 10 0 58052 65700.00000 0 -14359220.951 -1226864.820 -21069080.766 10 0 58052 66600.00000 0 -16075754.535 -3050578.031 -19593807.611 10 0 58052 67500.00000 0 -17771489.681 -4603960.281 -17738850.918 10 0 58052 68400.00000 0 -19384202.369 -5870380.121 -15540165.648 10 0 58052 69300.00000 0 -20851542.524 -6845722.821 -13040350.585 10 0 58052 70200.00000 0 -22113611.573 -7538296.867 -10287830.116 10 0 58052 71100.00000 0 -23115458.228 -7968221.309 -7335924.090 10 0 58052 72000.00000 0 -23809388.618 -8166320.435 -4241823.029 10 0 58052 72900.00000 0 -24156994.318 -8172572.739 -1065487.695 10 0 58052 73800.00000 0 -24130813.217 -8034179.731 2131506.333 10 0 58052 74700.00000 0 -23715553.182 -7803335.965 5287157.088 10 0 58052 75600.00000 0 -22908826.489 -7534794.455 8340234.929 10 0 58052 76500.00000 0 -21721363.185 -7283330.222 11231468.513 10 0 58052 77400.00000 0 -20176693.303 -7101209.260 13904694.874 10 0 58052 78300.00000 0 -18310309.897 -7035770.123 16307951.310 10 0 58052 79200.00000 0 -16168346.593 -7127220.809 18394487.717 10 0 58052 80100.00000 0 -13805823.692 -7406744.710 20123679.462 10 0 58052 81000.00000 0 -11284534.929 -7894996.571 21461822.861 10 0 58052 81900.00000 0 -8670662.002 -8601053.140 22382797.567 10 0 58052 82800.00000 0 -6032215.593 -9521864.141 22868582.576 10 0 58052 83700.00000 0 -3436408.861 -10642228.262 22909615.462 10 0 58052 84600.00000 0 -947072.289 -11935296.739 22504987.331 10 0 58052 85500.00000 0 1377782.600 -13363584.900 21662469.103 10 0 58053 0.00000 0 3488149.470 -14880450.395 20398367.977 10 0 58053 900.00000 0 5343872.225 -16431977.265 18737215.993 10 0 58053 1800.00000 0 6916072.547 -17959186.935 16711296.680 10 0 58053 2700.00000 0 8188099.535 -19400483.862 14360017.767 10 0 58053 3600.00000 0 9155963.746 -20694232.723 11729142.458 10 0 58053 4500.00000 0 9828236.986 -21781358.140 8869894.013 10 0 58053 5400.00000 0 10225423.831 -22607856.851 5837951.427 10 0 58053 6300.00000 0 10378832.544 -23127115.600 2692356.339 10 0 58053 7200.00000 0 10328994.610 -23301936.139 -505646.562 10 0 58053 8100.00000 0 10123701.434 -23106181.260 -3693812.020 10 0 58053 9000.00000 0 9815743.012 -22525971.876 -6810115.027 10 0 58053 9900.00000 0 9460445.935 -21560384.476 -9793964.997 10 0 58053 10800.00000 0 9113116.465 -20221619.617 -12587388.794 10 0 58053 11700.00000 0 8826498.057 -18534634.635 -15136158.983 10 0 58053 12600.00000 0 8648351.697 -16536256.529 -17390845.026 10 0 58053 13500.00000 0 8619261.696 -14273812.729 -19307767.220 10 0 58053 14400.00000 0 8770759.609 -11803337.528 -20849835.437 10 0 58053 15300.00000 0 9123845.050 -9187429.452 -21987257.244 10 0 58053 16200.00000 0 9687965.195 -6492848.876 -22698102.902 10 0 58053 17100.00000 0 10460495.289 -3787955.475 -22968717.558 10 0 58053 18000.00000 0 11426741.439 -1140091.354 -22793973.890 10 0 58053 18900.00000 0 12560465.221 1386982.707 -22177361.434 10 0 58053 19800.00000 0 13824908.037 3735493.002 -21130911.702 10 0 58053 20700.00000 0 15174272.493 5855802.450 -19674961.032 10 0 58053 21600.00000 0 16555599.288 7708216.636 -17837755.918 10 0 58053 22500.00000 0 17910961.780 9264373.153 -15654908.213 10 0 58053 23400.00000 0 19179887.191 10508158.145 -13168710.281 10 0 58053 24300.00000 0 20301903.968 11436113.443 -10427322.621 10 0 58053 25200.00000 0 21219109.385 12057318.594 -7483848.832 10 0 58053 26100.00000 0 21878650.369 12392753.646 -4395315.029 10 0 58053 27000.00000 0 22235013.801 12474170.130 -1221572.683 10 0 58053 27900.00000 0 22252030.229 12342518.040 1975854.586 10 0 58053 28800.00000 0 21904506.473 12045995.161 5134958.288 10 0 58053 29700.00000 0 21179417.891 11637800.985 8194443.769 10 0 58053 30600.00000 0 20076609.167 11173689.882 11094917.303 10 0 58053 31500.00000 0 18608972.957 10709426.805 13780038.422 10 0 58053 32400.00000 0 16802097.380 10298253.013 16197615.149 10 0 58053 33300.00000 0 14693395.512 9988469.063 18300620.692 10 0 58053 34200.00000 0 12330751.762 9821237.503 20048111.617 10 0 58053 35100.00000 0 9770740.156 9828698.644 21406029.474 10 0 58053 36000.00000 0 7076487.510 10032479.734 22347870.019 10 0 58053 36900.00000 0 4315269.486 10442661.401 22855206.654 10 0 58053 37800.00000 0 1555938.725 11057246.089 22918057.541 10 0 58053 38700.00000 0 -1133708.612 11862152.152 22535088.719 10 0 58053 39600.00000 0 -3689518.650 12831735.061 21713648.700 10 0 58053 40500.00000 0 -6053410.652 13929814.969 20469633.199 10 0 58053 41400.00000 0 -8175551.894 15111168.303 18827181.977 10 0 58053 42300.00000 0 -10016185.925 16323421.258 16818213.049 10 0 58053 43200.00000 0 -11547038.185 17509265.751 14481802.853 10 0 58053 44100.00000 0 -12752240.580 18608904.451 11863424.095 10 0 58053 45000.00000 0 -13628736.813 19562621.339 9014056.156 10 0 58053 45900.00000 0 -14186152.386 20313368.695 5989185.635 10 0 58053 46800.00000 0 -14446135.935 20809260.414 2847717.056 10 0 58053 47700.00000 0 -14441201.037 21005865.377 -349184.062 10 0 58053 48600.00000 0 -14213119.054 20868203.093 -3539292.231 10 0 58053 49500.00000 0 -13810932.665 20372356.552 -6660542.567 10 0 58053 50400.00000 0 -13288675.805 19506633.662 -9652245.928 10 0 58053 51300.00000 0 -12702898.051 18272228.030 -12456274.073 10 0 58053 52200.00000 0 -12110099.475 16683351.188 -15018191.153 10 0 58053 53100.00000 0 -11564185.359 14766830.956 -17288309.164 10 0 58053 54000.00000 0 -11114048.809 12561193.060 -19222647.078 10 0 58053 54900.00000 0 -10801383.351 10115264.762 -20783775.570 10 0 58053 55800.00000 0 -10658817.397 7486359.131 -21941531.814 10 0 58053 56700.00000 0 -10708448.467 4738115.615 -22673591.676 10 0 58053 57600.00000 0 -10960837.991 1938086.481 -22965889.521 10 0 58053 58500.00000 0 -11414508.016 -844831.174 -22812878.698 10 0 58053 59400.00000 0 -12055960.181 -3543012.271 -22217628.847 10 0 58053 60300.00000 0 -12860215.569 -6092662.306 -21191758.968 10 0 58053 61200.00000 0 -13791852.531 -8436213.012 -19755208.069 10 0 58053 62100.00000 0 -14806499.016 -10524457.510 -17935848.024 10 0 58053 63000.00000 0 -15852717.203 -12318338.181 -15768945.886 10 0 58053 63900.00000 0 -16874201.973 -13790314.527 -13296485.620 10 0 58053 64800.00000 0 -17812201.745 -14925255.735 -10566361.661 10 0 58053 65700.00000 0 -18608060.784 -15720822.025 -7631459.009 10 0 58053 66600.00000 0 -19205776.861 -16187319.841 -4548636.928 10 0 58053 67500.00000 0 -19554467.197 -16347037.714 -1377635.054 10 0 58053 68400.00000 0 -19610639.154 -16233091.118 1820077.540 10 0 58053 69300.00000 0 -19340169.949 -15887825.028 4982488.483 10 0 58053 70200.00000 0 -18719911.523 -15360841.468 8048240.784 10 0 58053 71100.00000 0 -17738852.083 -14706735.039 10957821.006 10 0 58053 72000.00000 0 -16398784.251 -13982631.774 13654713.806 10 0 58053 72900.00000 0 -14714450.151 -13245635.045 16086500.429 10 0 58053 73800.00000 0 -12713155.615 -12550286.275 18205879.691 10 0 58053 74700.00000 0 -10433867.865 -11946147.690 19971591.371 10 0 58053 75600.00000 0 -7925832.597 -11475609.359 21349223.891 10 0 58053 76500.00000 0 -5246766.506 -11172013.453 22311890.343 10 0 58053 77400.00000 0 -2460699.197 -11058175.394 22840759.330 10 0 58053 78300.00000 0 364446.870 -11145364.988 22925429.940 10 0 58053 79200.00000 0 3159438.643 -11432791.316 22564143.061 10 0 58053 80100.00000 0 5856370.135 -11907614.002 21763824.302 10 0 58053 81000.00000 0 8391246.127 -12545481.212 20539957.078 10 0 58053 81900.00000 0 10706404.664 -13311572.495 18916287.585 10 0 58053 82800.00000 0 12752677.389 -14162102.992 16924366.835 10 0 58053 83700.00000 0 14491197.746 -15046225.877 14602938.109 10 0 58053 84600.00000 0 15894781.653 -15908252.651 11997181.442 10 0 58053 85500.00000 0 16948823.148 -16690097.156 9157829.853 10 0 58054 0.00000 0 17651668.088 -17333839.396 6140174.846 10 0 58054 900.00000 0 18014450.969 -17784299.590 3002980.720 10 0 58054 1800.00000 0 18060403.319 -17991513.385 -192669.251 10 0 58054 2700.00000 0 17823663.518 -17913000.985 -3384572.530 10 0 58054 3600.00000 0 17347640.798 -17515734.932 -6510627.487 10 0 58054 4500.00000 0 16683003.583 -16777721.388 -9510049.418 10 0 58054 5400.00000 0 15885379.067 -15689128.144 -12324557.757 10 0 58054 6300.00000 0 15012862.628 -14252911.292 -14899510.751 10 0 58054 7200.00000 0 14123443.319 -12484914.175 -17184965.153 10 0 58054 8100.00000 0 13272454.809 -10413434.513 -19136640.483 10 0 58054 9000.00000 0 12510159.423 -8078277.944 -20716769.737 10 0 58054 9900.00000 0 11879566.802 -5529337.744 -21894820.802 10 0 58054 10800.00000 0 11414578.252 -2824759.912 -22648075.850 10 0 58054 11700.00000 0 11138533.797 -28769.709 -22962058.716 10 0 58054 12600.00000 0 11063221.797 2790750.475 -22830803.261 10 0 58054 13500.00000 0 11188391.508 5564832.301 -22256958.660 10 0 58054 14400.00000 0 11501787.984 8226036.299 -21251730.455 10 0 58054 15300.00000 0 11979707.068 10711003.241 -19834659.042 10 0 58054 16200.00000 0 12588046.710 12962837.920 -18033240.079 10 0 58054 17100.00000 0 13283810.385 14933228.127 -15882393.941 10 0 58054 18000.00000 0 14016999.694 16584212.334 -13423794.045 10 0 58054 18900.00000 0 14732817.085 17889524.113 -10705066.344 10 0 58054 19800.00000 0 15374086.692 18835458.554 -7778874.595 10 0 58054 20700.00000 0 15883792.033 19421225.482 -4701908.356 10 0 58054 21600.00000 0 16207624.244 19658775.479 -1533792.457 10 0 58054 22500.00000 0 16296433.773 19572106.440 1664061.629 10 0 58054 23400.00000 0 16108482.212 19196079.950 4829640.669 10 0 58054 24300.00000 0 15611398.951 18574797.232 7901528.234 10 0 58054 25200.00000 0 14783759.433 17759602.837 10820093.885 10 0 58054 26100.00000 0 13616217.396 16806799.913 13528649.864 10 0 58054 27000.00000 0 12112141.951 15775173.052 15974552.814 10 0 58054 27900.00000 0 10287730.920 14723422.906 18110229.032 10 0 58054 28800.00000 0 8171593.788 13707620.548 19894103.064 10 0 58054 29700.00000 0 5803819.698 12778788.851 21291411.449 10 0 58054 30600.00000 0 3234567.487 11980712.869 22274885.512 10 0 58054 31500.00000 0 522234.878 11348071.737 22825289.588 10 0 58054 32400.00000 0 -2268718.409 10904971.110 22931803.833 10 0 58054 33300.00000 0 -5070204.264 10663938.419 22592243.683 10 0 58054 34200.00000 0 -7813096.058 10625423.796 21813111.098 10 0 58054 35100.00000 0 -10429867.635 10777828.203 20609475.945 10 0 58054 36000.00000 0 -12857171.928 11098058.016 19004689.163 10 0 58054 36900.00000 0 -15038251.787 11552583.025 17029932.618 10 0 58054 37800.00000 0 -16925082.520 12098953.267 14723613.942 10 0 58054 38700.00000 0 -18480156.639 12687710.498 12130617.736 10 0 58054 39600.00000 0 -19677836.157 13264613.057 9301427.727 10 0 58054 40500.00000 0 -20505216.063 13773079.307 6291137.201 10 0 58054 41400.00000 0 -20962463.283 14156745.290 3158367.518 10 0 58054 42300.00000 0 -21062617.661 14362027.171 -35883.295 10 0 58054 43200.00000 0 -20830864.554 14340578.818 -3229438.421 10 0 58054 44100.00000 0 -20303311.106 14051539.309 -6360162.110 10 0 58054 45000.00000 0 -19525319.375 13463474.294 -9367176.553 10 0 58054 45900.00000 0 -18549468.304 12555928.355 -12192051.141 10 0 58054 46800.00000 0 -17433232.001 11320522.266 -14779940.280 10 0 58054 47700.00000 0 -16236473.516 9761548.653 -17080647.258 10 0 58054 48600.00000 0 -15018860.587 7896040.837 -19049593.639 10 0 58054 49500.00000 0 -13837312.559 5753311.972 -20648675.874 10 0 58054 50400.00000 0 -12743585.743 3373983.797 -21846993.358 10 0 58054 51300.00000 0 -11782098.073 808545.481 -22621434.989 10 0 58054 52200.00000 0 -10988083.329 -1884497.674 -22957114.137 10 0 58054 53100.00000 0 -10386151.069 -4640809.070 -22847644.872 10 0 58054 54000.00000 0 -9989311.143 -7392649.253 -22295255.257 10 0 58054 54900.00000 0 -9798502.272 -10071448.274 -21310736.385 10 0 58054 55800.00000 0 -9802643.133 -12610416.456 -19913228.730 10 0 58054 56700.00000 0 -9979202.846 -14947086.816 -18129850.129 10 0 58054 57600.00000 0 -10295266.246 -17025685.185 -15995172.419 10 0 58054 58500.00000 0 -10709048.958 -18799231.030 -13550556.421 10 0 58054 59400.00000 0 -11171798.628 -20231283.068 -10843357.414 10 0 58054 60300.00000 0 -11630002.662 -21297258.172 -7926015.649 10 0 58054 61200.00000 0 -12027809.902 -21985269.450 -4855048.684 10 0 58054 62100.00000 0 -12309564.690 -22296449.177 -1689964.228 10 0 58054 63000.00000 0 -12422346.725 -22244743.458 1507886.148 10 0 58054 63900.00000 0 -12318409.706 -21856187.317 4676490.659 10 0 58054 64800.00000 0 -11957415.606 -21167690.595 7754375.757 10 0 58054 65700.00000 0 -11308369.740 -20225385.420 10681796.320 10 0 58054 66600.00000 0 -10351174.059 -19082604.392 13401894.464 10 0 58054 67500.00000 0 -9077731.871 -17797574.174 15861804.456 10 0 58054 68400.00000 0 -7492555.805 -16430921.137 18013682.159 10 0 58054 69300.00000 0 -5612851.568 -15043093.753 19815638.773 10 0 58054 70200.00000 0 -3468071.906 -13691809.888 21232560.562 10 0 58054 71100.00000 0 -1098957.285 -12429636.267 22236798.382 10 0 58054 72000.00000 0 1443898.560 -11301801.874 22808713.238 10 0 58054 72900.00000 0 4101900.175 -10344337.304 22937066.917 10 0 58054 73800.00000 0 6810643.433 -9582618.448 22619249.597 10 0 58054 74700.00000 0 9502359.818 -9030375.999 21861339.406 10 0 58054 75600.00000 0 12108511.037 -8689212.633 20677992.150 10 0 58054 76500.00000 0 14562426.372 -8548648.358 19092162.636 10 0 58054 77400.00000 0 16801872.976 -8586692.201 17134662.394 10 0 58054 78300.00000 0 18771451.859 -8770915.956 14843561.864 10 0 58054 79200.00000 0 20424719.338 -9059984.374 12263448.320 10 0 58054 80100.00000 0 21725944.972 -9405576.521 9444553.950 10 0 58054 81000.00000 0 22651432.313 -9754616.208 6441771.293 10 0 58054 81900.00000 0 23190347.216 -10051716.009 3313575.733 10 0 58054 82800.00000 0 23345019.332 -10241730.132 120876.952 10 0 58054 83700.00000 0 23130704.918 -10272306.701 -3074177.249 10 0 58054 84600.00000 0 22574822.032 -10096329.983 -6209420.339 10 0 58054 85500.00000 0 21715691.698 -9674148.046 -9223884.657 99